Station 46025 (LLNR 181) - Santa Monica Basin - 33NM WSW of Santa Monica, CA Image indicating link to RSS feed of recent meteorological observations for station 46025


Conditions at 46025 as of
(5:30 pm PDT on 05/27/2024)
0030 GMT on 05/28/2024:
     

Click on the graph icon in the table below to see a time series plot of the last five days of that observation.

5-day plot - Wind Direction Wind Direction (WDIR): W ( 280 deg true )
5-day plot - Wind Speed Wind Speed (WSPD): 5.8 kts
5-day plot - Wind Gust Wind Gust (GST): 7.8 kts
5-day plot - Atmospheric Pressure Atmospheric Pressure (PRES):30.04 in
5-day plot - Air Temperature Air Temperature (ATMP): 57.7 °F
5-day plot - Water Temperature Water Temperature (WTMP): 61.5 °F
5-day plot - Dew Point Dew Point (DEWP): 54.0 °F
5-day plot - Wind Speed at 10 Meters Wind Speed at 10 meters (WSPD10M): 5.8 kts
5-day plot - Wind Speed at 20 Meters Wind Speed at 20 meters (WSPD20M): 5.8 kts
5-day plot -  Wind Speed, Wind Gust and Atmospheric Pressure Combined plot of Wind Speed, Gust, and Air Pressure
Supplemental Measurements
Highest 1-minute Wind Speed
Time (PDT)5-day plot - 1-Minute Wind Speed WSPD 5-day plot - 1-Minute Wind Direction WDIR
5:21 pm 5.8 kts-
Previous observations
TIME
(PDT)
5-day plot - Wind Direction
WDIR
 
5-day plot - Wind Speed
WSPD
kts
5-day plot - Wind Gust
GST
kts
5-day plot - Wave Height
WVHT
ft
5-day plot - Dominant Wave Period
DPD
sec
5-day plot - Average Wave Period
APD
sec
5-day plot - Mean Wave Direction
MWD
 
5-day plot - Atmospheric Pressure
PRES
in
5-day plot - Pressure Tendency
PTDY
in
5-day plot - Air Temperature
ATMP
°F
5-day plot - Water Temperature
WTMP
°F
5-day plot - Dew Point
DEWP
°F
5-day plot - Salinity
SAL
psu
5-day plot - Visibility
VIS
nmi
5-day plot - Tide (above MLLW)
TIDE
ft
2024-05-27 05:20 pm W 5.8 7.8 2.3 135.4SSE30.04- 57.9 61.7 54.0---
2024-05-27 05:10 pm W 3.9 5.8----30.04- 58.3 61.7 54.3---
2024-05-27 05:00 pm W 3.9 5.8----30.04-0.03 58.3 61.9 54.3---
2024-05-27 04:50 pmWNW 3.9 5.8 2.3 125.2SSE30.04- 58.1 61.9 54.0---
2024-05-27 04:40 pm W 3.9 7.8----30.05- 58.1 62.2 54.0---
2024-05-27 04:30 pm W 5.8 7.8----30.05- 58.1 62.1 54.0---
2024-05-27 04:20 pm W 5.8 7.8 2.3 135.2SSW30.05- 58.3 62.2 54.3---
2024-05-27 04:10 pmWNW 5.8 5.8 2.3-5.2SSW30.05- 58.5 62.4 54.3---
2024-05-27 04:00 pm W 3.9 5.8----30.06-0.02 58.6 61.9 54.1---
2024-05-27 03:50 pmWSW 3.9 5.8 2.3 175.1 W30.06- 58.5 62.4 53.8---
2024-05-27 03:40 pm SW 3.9 5.8----30.06- 58.5 62.1 53.8---
2024-05-27 03:30 pm W 3.9 5.8----30.06- 58.5 62.1 53.8---
2024-05-27 03:20 pm W 1.9 3.9 2.3 134.8SSW30.06- 58.5 61.9 54.0---
2024-05-27 03:10 pm W 3.9 3.9----30.06- 58.5 61.9 54.1---
2024-05-27 03:00 pm W 3.9 5.8----30.06-0.02 58.3 61.9 54.1---
2024-05-27 02:50 pm W 3.9 5.8 2.6 134.9 S30.07- 58.3 61.7 54.1---
2024-05-27 02:40 pm W 3.9 5.8 2.6-4.9 S30.07- 58.1 61.7 54.1---
2024-05-27 02:30 pm W 3.9 5.8----30.07- 58.1 61.0 54.1---
2024-05-27 02:20 pm W 3.9 5.8 2.3 134.7SSW30.07- 58.1 61.0 54.1---
2024-05-27 02:10 pm W 3.9 5.8 2.3-4.7SSW30.07- 57.9 61.0 54.0---
2024-05-27 02:00 pm W 5.8 5.8----30.07-0.01 57.9 61.0 54.0---
2024-05-27 01:50 pm W 5.8 7.8 2.6 64.6 W30.07- 57.9 61.0 54.0---
2024-05-27 01:40 pm W 3.9 5.8----30.07- 58.1 61.2 54.0---
2024-05-27 01:30 pm W 3.9 5.8----30.07- 57.9 61.0 53.6---
2024-05-27 01:20 pm W 3.9 5.8 2.6 64.6WSW30.08- 57.9 61.0 53.4---
2024-05-27 01:10 pmWSW 3.9 3.9 2.6-4.6WSW30.08- 58.3 61.0 53.6---
2024-05-27 01:00 pm SW 1.9 1.9----30.08+0.00 58.3 61.0 53.6---
2024-05-27 12:50 pmSSW 1.9 3.9 2.6 134.9SSW30.08- 58.1 61.0 53.4---
2024-05-27 12:40 pm S 1.9 3.9----30.08- 58.3 61.0 53.6---
2024-05-27 12:30 pm S 1.9 1.9----30.08- 58.3 61.0 53.8---
2024-05-27 12:20 pmSSE 1.9 3.9 3.0 64.9 W30.08- 58.3 61.0 53.8---
2024-05-27 12:10 pm- 0.0 1.9----30.08- 58.3 61.0 54.1---
2024-05-27 12:00 pm- 0.0 1.9----30.09+0.01 57.9 61.0 54.1---
2024-05-27 11:50 am- 0.0 1.9 3.0 54.9 W30.09- 57.4 61.0 53.8---
2024-05-27 11:40 am S 1.9 1.9 3.0-4.9 W30.09- 57.0 60.8 53.8---
2024-05-27 11:30 am S 3.9 5.8----30.09- 56.7 60.8 53.6---
2024-05-27 11:20 amSSE 5.8 7.8 3.0 54.9 W30.09- 56.8 61.0 53.6---
2024-05-27 11:10 amSSE 3.9 5.8 3.0-4.9 W30.09- 56.8 61.0 53.6---
2024-05-27 11:00 amSSE 3.9 7.8----30.09+0.02 56.7 61.0 53.4---
2024-05-27 10:50 am S 3.9 5.8 3.0 65.0 W30.09- 56.7 61.0 53.4---
2024-05-27 10:40 amSSE 1.9 5.8----30.08- 56.5 61.0 53.2---
2024-05-27 10:30 am S 3.9 5.8----30.08- 56.5 61.0 53.2---
2024-05-27 10:20 am S 3.9 5.8 3.0 54.8 W30.08- 56.3 61.0 52.9---
2024-05-27 10:10 am S 1.9 5.8----30.08- 56.7 61.0 53.4---
2024-05-27 10:00 amSSE 1.9 3.9----30.08+0.02 56.5 61.0 53.1---
2024-05-27 09:50 amSSE 1.9 3.9 3.0 54.9 W30.08- 56.3 61.0 53.1---
2024-05-27 09:40 am S 1.9 3.9 3.0-4.9 W30.08- 56.1 61.0 52.9---
2024-05-27 09:30 am S 1.9 3.9----30.08- 56.1 61.0 52.9---
2024-05-27 09:20 am S 1.9 3.9 3.0 135.2SSW30.08- 56.1 60.8 52.9---
2024-05-27 09:10 am S 1.9 3.9 3.0-5.2SSW30.08- 56.1 60.8 52.9---
2024-05-27 09:00 am S 1.9 3.9----30.08+0.04 55.9 61.0 52.9---
2024-05-27 08:50 am S 1.9 3.9 3.0 65.1 W30.07- 55.8 61.0 52.7---
2024-05-27 08:40 amSSE 1.9 3.9----30.07- 55.8 61.0 52.7---
2024-05-27 08:30 am- 0.0 3.9----30.07- 55.8 61.0 52.9---
2024-05-27 08:20 am- 0.0 3.9 2.6 64.9WSW30.07- 55.6 61.0 52.7---
2024-05-27 08:10 amWSW 1.9 3.9 2.6-4.9WSW30.07- 55.6 61.0 52.7---
2024-05-27 08:00 am SW 1.9 3.9----30.07+0.04 55.6 61.0 52.7---
2024-05-27 07:50 am- 0.0 1.9 3.0 54.9WSW30.06- 55.6 61.0 52.9---
2024-05-27 07:40 am- 0.0 1.9----30.06- 55.6 61.0 52.9---
2024-05-27 07:30 amWSW 1.9 3.9----30.06- 55.4 61.0 52.7---
2024-05-27 07:20 am W 1.9 3.9 3.0 134.9 S30.06- 55.2 61.2 52.5---
2024-05-27 07:10 am W 1.9 3.9----30.06- 55.4 61.2 52.7---
2024-05-27 07:00 am W 1.9 5.8----30.06+0.04 55.2 61.2 52.7---
2024-05-27 06:50 am W 3.9 5.8 3.0 65.1 W30.05- 55.4 61.0 52.9---
2024-05-27 06:40 am W 3.9 5.8----30.05- 55.4 61.0 53.1---
2024-05-27 06:30 amWSW 3.9 7.8----30.05- 55.2 61.0 52.9---
2024-05-27 06:20 am W 5.8 7.8 2.6 134.9SSE30.05- 55.4 61.0 53.1---
2024-05-27 06:10 am W 5.8 7.8 2.6-4.9SSE30.04- 55.4 61.0 53.2---
2024-05-27 06:00 am W 5.8 7.8----30.04+0.03 55.4 60.8 53.2---
2024-05-27 05:50 am W 5.8 7.8 3.0 134.9SSW30.03- 55.4 60.8 53.2---
2024-05-27 05:40 am W 5.8 9.7 3.0-4.9SSW30.03- 55.4 60.8 53.4---
2024-05-27 05:30 am W 5.8 9.7----30.03- 55.4 60.8 53.4---
2024-05-27 05:20 am W 7.8 9.7 2.6 134.6 S30.03- 55.4 60.8 53.6---
2024-05-27 05:10 am W 7.8 9.7 2.6-4.6 S30.02- 55.4 60.8 53.6---
2024-05-27 05:00 am W 7.8 9.7----30.02+0.02 55.6 61.0 53.8---
2024-05-27 04:50 am W 7.8 9.7 2.6 54.6 W30.02- 55.6 60.8 53.8---
2024-05-27 04:40 am W 7.8 9.7----30.02- 55.8 60.8 54.0---
2024-05-27 04:30 am W 7.8 9.7----30.02- 55.8 60.8 54.0---
2024-05-27 04:20 am W 7.8 9.7 2.6 134.5SSE30.01- 55.8 60.8 54.0---
2024-05-27 04:10 am W 7.8 9.7 2.6-4.5SSE30.01- 55.9 61.0 54.1---
2024-05-27 04:00 am W 7.8 9.7----30.01+0.00 56.1 61.2 54.1---
2024-05-27 03:50 am W 7.8 9.7 3.0 54.5 W30.01- 55.9 61.2 54.0---
2024-05-27 03:40 am W 7.8 9.7----30.01- 56.1 61.2 54.1---
2024-05-27 03:30 am W 7.8 9.7----30.01- 56.1 61.3 54.0---
2024-05-27 03:20 am W 7.8 9.7 3.0 54.3 W30.01- 56.3 61.3 54.1---
2024-05-27 03:10 am W 7.8 9.7 3.0-4.3 W30.01- 56.3 61.3 54.1---
2024-05-27 03:00 am W 7.8 9.7----30.01+0.00 56.5 61.3 54.3---
2024-05-27 02:50 am W 7.8 9.7 3.0 134.4SSE30.01- 56.5 61.3 54.0---
2024-05-27 02:40 am W 7.8 9.7----30.01- 56.7 61.3 54.1---
2024-05-27 02:30 am W 7.8 9.7----30.00- 56.7 61.3 54.1---
2024-05-27 02:20 am W 7.8 9.7 3.0 44.3 W30.01- 56.7 61.3 54.1---
2024-05-27 02:10 am W 7.8 9.7----30.00- 56.7 61.3 54.1---
2024-05-27 02:00 am W 7.8 9.7----30.00-0.02 57.0 61.3 54.5---
2024-05-27 01:50 amWNW 7.8 9.7 3.3 54.4WNW30.01- 57.0 61.3 54.5---
2024-05-27 01:40 am W 7.8 9.7 3.3-4.4WNW30.01- 56.8 61.3 54.3---
2024-05-27 01:30 am W 7.8 9.7----30.01- 57.0 61.3 54.5---
2024-05-27 01:20 am W 7.8 9.7 3.3 54.4 W30.01- 57.0 61.3 54.5---
2024-05-27 01:10 amWNW 7.8 9.7 3.3-4.4 W30.01- 57.0 61.3 54.5---
2024-05-27 01:00 am W 7.8 9.7----30.01-0.01 57.0 61.3 54.5---
2024-05-27 12:50 amWNW 7.8 9.7 3.3 134.6 SE30.01- 57.0 61.3 54.5---
2024-05-27 12:40 am W 7.8 11.7 3.3-4.6 SE30.01- 57.2 61.3 54.5---
2024-05-27 12:30 amWNW 7.8 9.7----30.01- 57.6 61.3 54.7---
2024-05-27 12:20 amWNW 7.8 9.7 3.3 54.6WNW30.01- 57.6 61.3 54.7---
2024-05-27 12:10 amWNW 7.8 9.7----30.01- 57.7 61.3 54.7---
2024-05-27 12:00 amWNW 7.8 11.7----30.01+0.00 57.9 61.3 54.9---
2024-05-26 11:50 pmWNW 9.7 11.7 3.3 54.5 W30.01- 57.6 61.3 54.3---
2024-05-26 11:40 pmWNW 9.7 11.7 3.3-4.5 W30.01- 57.7 61.3 54.7---
2024-05-26 11:30 pmWNW 9.7 13.6----30.02- 58.1 61.5 55.0---
2024-05-26 11:20 pmWNW 9.7 11.7 3.3 134.4 S30.02- 57.9 61.5 54.5---
2024-05-26 11:10 pmWNW 9.7 11.7 3.3-4.4 S30.03- 57.7 61.5 54.5---
2024-05-26 11:00 pm NW 9.7 11.7----30.03+0.01 57.7 61.5 54.3---
2024-05-26 10:50 pm NW 11.7 11.7 3.3 134.5 S30.03- 57.6 61.5 54.1---
2024-05-26 10:40 pm NW 11.7 13.6----30.03- 57.6 61.5 54.3---
2024-05-26 10:30 pm NW 11.7 13.6----30.03- 57.6 61.5 54.3---
2024-05-26 10:20 pm NW 11.7 13.6 3.0 54.2 W30.03- 57.6 61.5 54.3---
2024-05-26 10:10 pm NW 11.7 13.6 3.0-4.2 W30.03- 57.7 61.5 54.5---
2024-05-26 10:00 pm NW 11.7 13.6----30.03+0.01 57.7 61.5 54.7---
2024-05-26 09:50 pm NW 11.7 13.6 3.0 134.3SSW30.02- 57.6 61.5 54.5---
2024-05-26 09:40 pm NW 11.7 13.6----30.02- 57.6 61.7 54.5---
2024-05-26 09:30 pm NW 11.7 13.6----30.02- 57.7 61.7 54.7---
2024-05-26 09:20 pm NW 11.7 13.6 2.6 134.1 S30.01- 57.9 61.7 54.9---
2024-05-26 09:10 pm NW 11.7 13.6 2.6-4.1 S30.02- 57.9 61.9 54.7---
2024-05-26 09:00 pm NW 11.7 13.6----30.01-0.01 57.7 61.9 54.5---
2024-05-26 08:50 pm NW 11.7 13.6 2.6 134.1SSW30.01- 57.7 61.9 54.5---
2024-05-26 08:40 pm NW 11.7 13.6----30.01- 57.7 61.9 54.7---
2024-05-26 08:30 pm NW 11.7 13.6----30.01- 57.7 62.1 54.7---
2024-05-26 08:20 pm NW 11.7 13.6 2.6 134.5ENE30.01- 57.7 62.1 54.9---
2024-05-26 08:10 pm NW 11.7 11.7----30.01- 57.9 62.1 55.2---
2024-05-26 08:00 pm NW 9.7 11.7----30.01-0.01 58.1 62.1 55.2---
2024-05-26 07:50 pm NW 9.7 11.7 2.3 134.6SSW30.01- 58.5 62.1 55.4---
2024-05-26 07:40 pmWNW 9.7 11.7----30.01- 58.6 62.1 55.2---
2024-05-26 07:30 pmWNW 9.7 11.7----30.01- 58.8 62.1 55.0---
2024-05-26 07:20 pmWNW 9.7 11.7 2.6 135.0SSE30.01- 58.8 62.2 54.7---
2024-05-26 07:10 pmWNW 9.7 11.7 2.6-5.0SSE30.01- 58.8 62.2 54.1---
2024-05-26 07:00 pmWNW 9.7 11.7----30.01-0.03 58.6 62.2 54.0---
2024-05-26 06:50 pmWNW 9.7 11.7 2.3 134.8 S30.01- 58.8 62.2 54.5---
2024-05-26 06:40 pmWNW 9.7 11.7----30.02- 58.8 62.2 54.5---
2024-05-26 06:30 pmWNW 9.7 11.7----30.02- 58.6 62.1 54.3---
2024-05-26 06:20 pmWNW 9.7 11.7 2.3 145.2 S30.02- 58.8 62.1 54.5---
2024-05-26 06:10 pmWNW 9.7 11.7----30.02- 58.6 62.1 54.3---
2024-05-26 06:00 pm W 9.7 11.7----30.02-0.03 58.6 62.1 54.3---
2024-05-26 05:50 pm W 9.7 11.7 2.3 135.2 S30.02- 58.6 62.1 54.3---
2024-05-26 05:40 pm W 9.7 11.7 2.3-5.2 S30.02- 58.6 62.1 54.3---
2024-05-26 05:30 pmWNW 9.7 9.7----30.03- 58.6 62.1 54.1---
2024-05-26 05:20 pm W 9.7 9.7 2.3 135.0 S30.03- 58.5 62.1 54.0---
2024-05-26 05:10 pmWNW 7.8 9.7 2.3-5.0 S30.03- 58.5 62.1 53.8---
2024-05-26 05:00 pm W 7.8 9.7----30.03-0.03 58.5 62.1 54.0---
2024-05-26 04:50 pm W 7.8 9.7 2.3 145.2 S30.03- 58.5 62.2 53.8---

Detailed Wave Summary
for 46025 as of
(5:10 pm PDT on 05/27/2024)
0010 GMT on 05/28/2024:

These wave data are displayed in rounded times.

     

Click on the graph icon in the table below to see a time series plot of the last five days of that observation.

5-day plot - Significant Wave Height Significant Wave Height (WVHT): 2.3 ft
5-day plot - Swell Height Swell Height (SwH): 2.3 ft
5-day plot - Swell Period Swell Period (SwP): 12.9 sec
5-day plot - Swell Direction Swell Direction (SwD):SSE
5-day plot - Wind Wave Height Wind Wave Height (WWH): 1.0 ft
5-day plot - Wind Wave Period Wind Wave Period (WWP): 3.8 sec
5-day plot - Wind Wave Direction Wind Wave Direction (WWD):WSW
5-day plot - Average Wave Period Average Wave Period (APD): 5.4 sec
Previous observations
TIME
(PDT)
5-day plot - Wave Height
WVHT
ft
5-day plot - Swell Height
SwH
ft
5-day plot - Swell Period
SwP
sec
5-day plot - Swell Direction
SwD
 
5-day plot - Wind Wave Height
WWH
ft
5-day plot - Wind Wave Period
WWP
sec
5-day plot - Wind Wave Direction
WWD
 
5-day plot - Wave Steepness
STEEPNESS
 
5-day plot - Average Wave Period
APD
sec
2024-05-27 04:40 pm 2.3 2.0 12.1SSE 1.0 3.6 W N/A 5.2
2024-05-27 04:10 pm 2.3 2.0 12.9SSW 1.0 3.8 W N/A 5.2
2024-05-27 03:40 pm 2.3 2.3 17.4 W 1.0 2.9 W N/A 5.1
2024-05-27 03:10 pm 2.3 2.0 12.9SSW 1.0 3.6 W N/A 4.8
2024-05-27 02:40 pm 2.6 2.3 12.9 S 1.3 4.0 W N/A 4.9
2024-05-27 02:10 pm 2.3 2.0 12.9SSW 1.3 4.0 W N/A 4.7
2024-05-27 01:40 pm 2.6 2.3 5.9 W 1.3 4.0 W N/A 4.6
2024-05-27 01:10 pm 2.6 2.3 5.9WSW 1.3 3.6 W N/A 4.6
2024-05-27 12:40 pm 2.6 2.3 12.9SSW 1.3 3.7 W SWELL 4.9
2024-05-27 12:10 pm 3.0 2.6 5.9 W 1.3 4.0 W STEEP 4.9
2024-05-27 11:40 am 3.0 2.6 5.0 W 1.3 3.3 WSWVERY_STEEP 4.9
2024-05-27 11:10 am 3.0 2.6 4.8 W 1.3 3.6 WVERY_STEEP 4.9
2024-05-27 10:40 am 3.0 3.0 6.2 W 1.3 3.8 W STEEP 5.0
2024-05-27 10:10 am 3.0 2.6 5.0 W 1.3 3.8 WVERY_STEEP 4.8
2024-05-27 09:40 am 3.0 2.6 5.0 W 1.3 3.6 WSWVERY_STEEP 4.9
2024-05-27 09:10 am 3.0 2.6 12.9SSW 1.0 3.6 W SWELL 5.2
2024-05-27 08:40 am 3.0 2.6 6.2 W 1.0 4.0 W STEEP 5.1
2024-05-27 08:10 am 2.6 2.3 5.9WSW 1.3 3.4 W STEEP 4.9
2024-05-27 07:40 am 3.0 2.6 4.8WSW 1.0 3.7 WVERY_STEEP 4.9
2024-05-27 07:10 am 3.0 2.6 12.9 S 1.3 3.3 W SWELL 4.9
2024-05-27 06:40 am 3.0 2.6 5.9 W 1.3 4.0 W STEEP 5.1
2024-05-27 06:10 am 2.6 2.6 12.9SSE 1.3 3.1 W SWELL 4.9
2024-05-27 05:40 am 3.0 2.6 12.9SSW 1.3 3.8 W SWELL 4.9
2024-05-27 05:10 am 2.6 2.3 12.9 S 1.3 3.8 W SWELL 4.6
2024-05-27 04:40 am 2.6 2.0 5.3 W 1.3 3.7 W N/A 4.6
2024-05-27 04:10 am 2.6 2.0 12.9SSE 1.3 3.7 WNW N/A 4.5
2024-05-27 03:40 am 3.0 2.3 5.0 W 1.6 4.0 WVERY_STEEP 4.5
2024-05-27 03:10 am 3.0 2.3 4.8 W 1.6 3.6 WNWVERY_STEEP 4.3
2024-05-27 02:40 am 3.0 2.6 12.9SSE 1.6 4.0 W SWELL 4.4
2024-05-27 02:10 am 3.0 2.6 4.3 W 1.6 3.7 WNWVERY_STEEP 4.3
2024-05-27 01:40 am 3.3 2.6 4.8WNW 2.0 3.8 WNWVERY_STEEP 4.4
2024-05-27 01:10 am 3.3 2.6 5.0 W 2.0 4.0 WNWVERY_STEEP 4.4
2024-05-27 12:40 am 3.3 3.0 12.9 SE 1.6 4.0 WNW SWELL 4.6
2024-05-27 12:10 am 3.3 3.0 5.0WNW 1.6 4.0 WNWVERY_STEEP 4.6
2024-05-26 11:40 pm 3.3 2.3 5.0 W 2.3 4.5 WNWVERY_STEEP 4.5
2024-05-26 11:10 pm 3.3 2.3 12.9 S 2.3 4.3 W SWELL 4.4
2024-05-26 10:40 pm 3.3 2.0 12.9 S 2.6 5.0 W AVERAGE 4.5
2024-05-26 10:10 pm 3.0 1.3 12.9 S 2.6 4.5 WVERY_STEEP 4.2
2024-05-26 09:40 pm 3.0 1.6 12.9SSW 2.6 4.8 W AVERAGE 4.3
2024-05-26 09:10 pm 2.6 1.3 12.9 S 2.3 4.8 W AVERAGE 4.1
2024-05-26 08:40 pm 2.6 1.6 12.9SSW 2.3 4.5 W AVERAGE 4.1
2024-05-26 08:10 pm 2.6 1.6 12.9ENE 2.0 5.0 W N/A 4.5
2024-05-26 07:40 pm 2.3 1.6 12.9SSW 1.6 3.8 WSW N/A 4.6
2024-05-26 07:10 pm 2.6 2.0 12.9SSE 1.3 4.8 W N/A 5.0
2024-05-26 06:40 pm 2.3 1.6 12.9 S 1.3 5.0 WSW N/A 4.8
2024-05-26 06:10 pm 2.3 2.0 13.8 S 1.3 4.8 WSW N/A 5.2
2024-05-26 05:40 pm 2.3 2.0 12.9 S 1.3 4.2 W N/A 5.2
2024-05-26 05:10 pm 2.3 2.0 12.9 S 1.0 4.0 W N/A 5.0

Plot of wave energy versus frequency (and period)